SCP
0 0 0 0 0 0 0 0 0 0 0 0 0 0 0 0 0 0 0 0 0 0 0 0 0 0 0 0 0 0 0 0 0 0 0 0 0 0 0 0 0 0 0 0
0 0 0 0 0 0 0 0 0 0 0 0 0 0 0 0 0 0 0 0 0 0 0 0 0 0 0 0 0 0 0 0 0 0 0 0 0 0 0 0 0 0 0 0
0 0 0 0 0 0 0 0 0 0 0 0 0 0 0 0 0 0 0 0 0 0 0 0 0 0 0 0 0 0 0 0 0 0 0 0 0 0 0 0 0 0 0 0
0 0 0 0 0 0 0 0 0 0 0 0 0 0 0 0 0 0 0 0 0 0 0 0 0 0 0 0 0 0 0 0 0 0 0 0 0 0 0 0 0 0 0 0
0 0 0 0 0 0 0 0 0 0 0 0 0 0 0 0 0 0 0 0 0 0 0 0 0 0 0 0 0 0 0 0 0 0 0 0 0 0 0 0 0 0 0 0
0 0 0 0 0 0 0 0 0 0 0 0 0 0 0 0 0 0 0 0 0 0 0 0 0 0 0 0 0 0 0 0 0 0 0 0 0 0 0 0 0 0 0 0
0 0 0 0 0 0 0 0 0 0 0 0 0 0 0 0 0 0 0 0 0 0 0 0 0 0 0 0 0 0 0 0 0 0 0 0 0 0 0 0 0 -0 -0 0
-0 0 0 0 0 0 0 0 0 0 0 0 0 0 0 0 0 0 0 0 0 0 0 0 0 0 0 0 0 0 0 0 0 0 0 0 0 0 0 0 0 0 0 0
0 0 0 0 0 0 0 0 0 0 0 0 0 0 0 0 0 0 0 0 0 0 0 0 0 0 0 0 0 0 0 0 0 0 0 0 0 0 0 0 0 0 0 0
0 0 0 0 0 0 0 0 0 0 0 0 0 0 0 0 0 0 0 0 0 0 0 0 0 0 0 0 0 0 0 0 0 0 0 0 0 0 0 0 0 0 0 0
0 0 0 0 0 0 0 0 0 0 0 0 0 0 0 0 0 0 0 0 0 0 0 0 0 0 0 0 0 0 0 0 0 0 0 0 0 0 0 0 0 0 0 -0
0 0 1 0 1 0 1 1 1 0 0 0 0 0 0 0 0 0 0 0 0 0 0 0 0 0 0 0 0 0 0 0 0 0 0 0 0 0 0 0 0 0 -0 -0
0 0 0 0 0 0 0 0 0 0 0 0 0 0 0 0 0 0 0 0 0 0 0 0 0 0 0 0 0 0 0 0 0 0 0 0 0 0 0 0 0 0 0 0
0 0 0 0 0 0 0 0 0 0 0 0 0 0 0 0 0 0 0 0 0 0 0 0 0 0 0 0 0 0 0 0 0 0 0 0 0 0 0 0 0 0 0 0
0 0 0 0 0 0 0 0 0 0 0 0 0 0 0 0 0 0 0 0 0 0 0 0 0 0 0 0 0 0 0 0 0 0 0 0 0 0 0 0 0 0 0 0
0 0 0 0 0 0 0 0 0 0 0 0 0 0 0 0 0 0 0 0 0 0 0 0 0 0 0 0 0 0 0 0 0 0 0 0 0 0 0 0 0 0 0 0
0 0 0 0 0 0 0 0 0 0 0 0 0 0 0 0 0 0 0 0 0 0 0 0 0 0 0 0 0 0 0 0 0 0 0 0 0 0 0 0 0 0 0 0
0 0 0 0 0 0 0 0 0 0 0 0 0 0 0 0 0 0 0 0 0 0 0 0 0 0 0 0 0 0 0 0 0 -0 0 -0 0 0 0 0 0 0 0 0
0 0 0 0 0 0 0 0 0 0 0 0 0 0 0 0 0 0 0 0 0 0 0 0 0 0 0 0 0 0 0 0 0 -0 0 -0 0 0 0 0 0 0 0 0
0 0 0 0 0 0 0 0 0 0 0 0 0 0 0 0 0 0 0 0 0 0 0 0 0 0 0 0 0 0 0 0 0 0 0 0 0 0 0 0 0 0 0 0
0 0 0 0 0 0 0 0 0 0 0 0 0 0 0 0 0 0 0 0 0 0 0 0 0 0 0 0 0 0 0 -0 -0 -0 -0 -0 0 0 0 0 0 0 0 0
0 0 0 0 0 0 0 0 0 0 0 0 0 0 0 0 0 0 0 0 0 0 0 0 0 0 0 0 0 0 0 -0 -0 -0 -0 0 0 0 0 0 0 0 0 0
0 0 0 0 0 0 0 0 -0 0 0 0 0 0 0 0 0 0 0 0 0 0 0 0 0 0 0 0 0 0 0 0 0 0 0 0 0 0 0 0 0 0 0 0
0 0 0 0 0 0 0 0 0 0 0 0 0 0 0 0 0 0 0 0 0 0 0 0 0 0 0 0 0 0 0 0 0 0 0 0 0 0 0 0 0 0 0 0
0 0 0 0 0 0 0 0 0 0 0 0 0 0 0 0 0 0 0 0 0 0 0 0 0 0 0 0 0 0 0 0 0 0 0 0 0 0 0 0 0 0 0 0
0 0 0 0 0 0 0 0 0 0 0 0 0 0 0 0 -0 0 0 -0 0 0 0 0 -0 0 0 0 0 0 0 0 0 0 0 0 0 0 0 0 0 0 0 0
0 0 0 0 0 -0 0 0 0 0 0 0 0 0 0 -0 0 0 -0 -0 0 0 0 0 0 0 0 0 0 0 0 0 0 0 0 0 0 0 0 0 0 0 0 0
Wind_Speed_500mb
19 23 20 26 28 28 26 24 25 28 28 28 17 19 19 19 20 23 27 28 27 28 33 36 39 42 44 41 42 42 44 47 50 52 53 52 47 54 62 58 46 45 40 40
22 29 20 27 29 28 26 24 25 23 27 9 15 15 20 18 21 26 29 29 28 29 33 35 38 42 43 41 46 45 51 51 53 56 53 47 50 63 57 46 46 42 38 37
22 20 18 27 25 24 25 11 16 20 20 22 16 21 21 21 20 24 30 29 27 29 31 34 37 40 40 42 46 43 49 50 52 54 50 45 58 55 50 55 50 39 36 29
17 19 26 4 6 9 10 13 16 19 18 17 16 18 28 21 14 23 28 26 25 27 30 33 36 38 39 39 38 43 49 49 52 52 46 52 56 58 59 52 40 33 19 30
12 22 25 24 9 12 15 18 21 24 11 19 15 22 19 4 7 18 19 18 21 24 29 32 35 38 37 38 37 39 42 51 46 45 51 51 58 58 48 40 38 29 23 21
25 27 28 17 9 9 10 21 27 7 12 17 17 15 11 5 15 17 16 18 22 25 27 31 34 35 36 37 37 36 43 47 44 45 53 55 53 47 40 37 38 25 23 12
27 27 26 8 5 9 18 19 22 6 17 17 16 23 21 18 18 17 16 17 20 25 29 30 34 35 36 36 35 41 40 43 43 48 54 51 45 38 34 34 35 19 10 9
28 25 27 19 13 6 22 27 18 20 21 21 24 28 28 23 25 22 20 20 23 26 28 30 33 33 36 36 37 39 40 39 39 52 53 43 38 38 39 36 26 13 3 15
23 14 4 4 16 23 20 30 32 24 20 24 27 34 35 29 25 24 20 19 21 25 29 30 31 31 35 34 38 38 38 37 39 54 47 39 38 45 44 32 14 9 14 16
24 29 38 34 43 23 31 29 26 18 24 27 32 37 39 31 24 23 18 18 20 23 27 30 29 32 31 33 36 36 38 34 43 53 44 37 39 42 34 27 18 16 18 22
33 33 43 35 33 32 32 14 21 23 29 33 34 39 37 28 24 23 18 14 16 21 25 28 31 30 30 31 33 35 35 33 41 49 41 36 36 38 33 27 18 15 19 25
23 30 19 27 23 16 23 21 27 39 44 40 34 38 36 27 24 22 17 14 14 18 22 25 28 28 31 29 30 34 31 31 38 45 37 33 28 30 36 32 26 24 22 35
42 43 44 41 40 42 46 49 52 50 49 49 49 45 39 31 26 23 15 11 12 15 18 21 26 25 30 31 31 31 27 32 38 39 31 29 27 27 40 48 46 44 39 36
43 46 49 51 57 56 58 58 56 56 53 51 48 45 42 35 29 25 16 11 9 11 14 19 23 23 26 28 30 28 25 28 38 29 25 23 23 27 32 33 42 45 40 37
35 38 43 45 46 48 50 52 55 55 55 53 45 40 37 38 33 24 18 11 6 8 12 16 19 20 27 28 26 23 25 29 32 21 20 21 20 27 26 32 38 38 38 37
42 47 47 48 49 47 50 54 58 63 61 60 47 39 36 36 31 25 19 11 3 6 8 11 13 19 24 24 24 19 21 26 24 20 21 21 19 28 22 28 32 32 32 31
30 31 30 36 39 44 49 52 56 56 52 49 43 39 36 36 33 27 19 12 5 2 4 8 9 18 19 22 18 18 22 22 25 21 21 21 19 23 22 22 26 21 14 22
24 30 35 40 44 49 54 55 54 51 49 42 38 33 38 41 37 28 20 13 5 3 8 13 7 16 14 17 11 16 17 18 26 24 21 17 20 16 26 20 21 19 21 27
28 34 35 38 42 48 52 55 53 47 40 35 31 36 41 40 33 28 22 13 7 7 16 16 8 15 13 16 7 13 14 10 21 23 20 17 16 16 20 21 22 21 19 19
31 35 39 42 44 44 49 50 44 38 33 32 35 38 39 37 34 29 20 12 8 17 19 7 4 9 8 13 6 10 10 11 14 20 19 18 17 17 22 23 24 15 14 14
35 39 43 44 45 45 44 42 37 33 30 29 37 43 46 38 34 26 19 12 15 10 7 5 7 5 7 3 5 7 5 10 9 17 20 19 19 19 22 22 21 24 21 18
39 43 47 48 48 47 42 38 33 26 22 24 29 35 44 41 30 23 15 13 20 7 8 7 4 12 2 8 6 1 5 4 7 12 16 18 23 21 22 23 19 18 17 14
39 47 49 47 49 48 43 36 27 19 21 26 34 41 34 30 21 16 12 14 10 11 16 12 8 8 3 9 4 2 1 1 5 9 13 17 20 23 25 24 24 21 21 16
42 50 49 48 45 39 35 26 13 10 23 40 50 48 35 27 20 19 18 13 13 19 19 11 5 6 4 3 1 3 2 4 6 12 12 15 20 24 23 14 12 12 15 14
44 48 46 44 39 35 23 13 25 27 43 45 44 40 27 24 17 14 9 13 14 14 8 2 1 2 4 4 5 6 7 8 11 15 19 17 20 23 27 18 20 15 12 8
43 47 45 33 29 29 14 24 32 40 50 46 42 31 27 18 14 13 13 12 15 13 8 4 4 5 3 4 3 5 6 15 10 16 22 23 21 25 28 22 17 12 12 11
44 43 41 37 34 28 28 27 37 45 40 33 28 23 15 11 17 15 14 17 13 9 9 4 1 4 6 8 9 5 5 15 17 19 23 28 26 24 27 25 19 7 9 12
Wind_Direction_500mb
270 290 286 281 284 281 268 252 263 286 305 312 7 334 337 331 319 309 313 317 319 317 317 319 321 321 321 317 317 315 314 313 316 314 313 314 314 311 316 313 303 309 309 308
284 269 261 278 278 272 259 269 274 279 283 54 340 316 321 314 311 317 318 321 320 318 318 321 322 323 323 320 318 315 315 311 316 316 318 319 311 322 323 321 317 301 295 310
276 301 295 280 287 255 242 249 265 276 326 335 321 328 331 318 318 322 322 321 317 318 319 321 322 324 324 319 318 316 314 317 321 322 321 321 327 331 330 328 322 320 303 293
270 278 271 68 355 348 307 297 283 270 265 308 317 325 310 309 328 327 323 317 313 315 318 320 322 325 322 320 321 319 320 327 328 328 328 329 331 336 330 331 331 327 312 317
267 270 307 312 291 212 255 273 297 282 281 315 329 325 6 129 297 322 319 313 310 313 317 320 323 323 325 320 321 323 327 328 328 329 335 339 336 333 338 340 341 336 312 300
278 280 277 285 88 20 326 274 328 149 282 305 323 300 53 354 308 310 308 306 306 312 320 321 323 326 323 321 324 327 324 331 331 332 343 340 339 341 342 343 346 332 316 329
245 255 277 287 251 120 271 282 297 282 293 296 301 317 319 303 301 300 304 306 306 318 320 323 326 326 322 322 326 322 330 338 333 344 346 344 343 346 347 348 344 339 355 121
253 291 284 63 108 248 283 310 299 291 292 298 304 308 302 287 290 291 297 303 306 314 320 326 329 322 325 325 325 333 337 343 335 349 351 350 349 350 351 340 342 353 22 165
302 207 343 61 284 303 276 281 291 294 294 303 310 312 308 296 279 279 289 297 310 315 324 326 330 324 329 330 332 335 347 338 344 353 357 1 3 358 353 359 10 65 100 125
266 269 285 284 285 262 272 270 267 280 298 301 303 313 309 294 273 271 283 295 307 320 323 328 326 328 330 332 332 340 346 340 348 357 3 10 8 8 14 18 57 94 110 127
246 272 277 282 304 356 275 255 249 279 291 292 291 300 305 285 264 267 274 288 308 322 324 327 329 334 335 332 342 339 347 346 344 359 9 16 24 17 27 37 56 104 115 131
276 304 326 298 332 332 319 307 286 287 291 291 288 295 292 264 250 251 262 277 305 321 324 330 331 338 335 338 347 342 349 349 348 2 13 26 41 39 40 50 71 86 104 121
287 283 282 290 287 291 291 289 284 286 288 287 289 292 279 248 228 228 231 269 305 318 330 331 335 338 339 342 347 345 345 355 348 2 18 37 50 58 72 78 79 90 103 114
281 287 285 279 285 289 288 285 283 283 283 286 282 278 264 237 219 214 221 239 291 318 335 333 337 342 335 341 344 344 359 347 345 9 28 51 67 81 92 81 87 95 102 103
272 275 278 284 287 288 288 288 285 279 281 282 285 272 247 228 218 210 207 221 279 324 329 327 340 333 340 343 348 355 0 344 1 24 46 65 85 101 89 85 91 96 101 102
298 290 289 293 292 294 297 295 287 282 279 279 274 266 235 225 219 210 205 213 241 285 326 325 344 339 347 345 354 12 348 11 27 51 61 76 89 107 114 104 101 103 107 111
291 292 302 305 303 305 304 297 290 292 288 279 270 256 221 214 210 206 204 211 234 277 289 339 344 345 357 348 357 8 3 36 38 53 65 85 84 116 109 114 114 124 99 129
294 294 293 295 301 307 308 304 296 292 284 274 270 228 211 209 207 204 203 202 209 218 262 328 348 354 30 352 17 12 14 37 40 44 55 87 99 112 124 128 126 122 114 126
304 304 306 302 299 305 310 309 301 294 277 258 250 220 212 208 203 200 196 194 203 217 258 299 342 10 22 342 41 32 21 48 39 41 47 92 97 119 130 135 132 138 129 128
316 312 308 303 298 301 309 314 309 292 271 251 234 213 206 202 201 193 187 183 188 210 256 285 348 13 31 346 68 31 6 48 51 43 48 87 103 121 137 141 145 140 124 125
317 319 317 312 302 299 309 313 309 291 274 245 223 210 199 192 194 186 182 187 220 256 254 159 108 30 332 10 71 27 360 55 82 51 52 93 102 116 124 133 144 145 132 128
321 318 317 314 307 298 303 306 305 284 251 223 213 197 188 183 184 177 175 195 229 242 152 136 215 332 293 118 27 30 17 66 98 77 64 92 105 114 129 121 125 127 126 138
322 323 319 315 307 295 295 298 297 264 223 192 178 175 175 177 180 185 179 186 230 164 141 198 268 315 22 83 326 250 79 165 130 131 92 95 112 112 113 123 114 107 114 127
323 328 323 321 314 297 284 284 272 200 183 178 179 183 179 176 188 196 205 215 208 157 170 212 276 346 67 46 355 259 201 205 213 168 137 114 118 119 121 109 111 99 117 112
325 330 328 328 321 314 285 240 210 192 186 179 178 169 179 200 204 186 167 186 160 154 174 120 338 326 62 310 278 249 223 188 223 189 174 154 133 126 104 108 120 129 130 155
320 328 327 324 327 315 259 248 222 190 180 171 173 171 180 177 180 152 167 154 148 147 185 55 63 13 285 274 259 242 237 204 205 207 189 178 168 148 121 106 109 123 118 134
313 321 324 314 309 301 285 260 207 182 177 176 167 170 168 178 157 153 168 158 158 157 151 124 301 295 302 247 275 262 228 198 210 204 196 189 184 172 162 135 139 159 130 143
Wind_Speed_850mb
19 23 20 26 28 28 26 24 25 28 28 28 17 19 19 19 20 23 27 28 27 28 33 36 39 42 44 41 42 42 44 47 50 52 53 52 47 54 62 58 46 45 40 40
22 29 20 27 29 28 26 24 25 23 27 9 15 15 20 18 21 26 29 29 28 29 33 35 38 42 43 41 46 45 51 51 53 56 53 47 50 63 57 46 46 42 38 37
22 20 18 27 25 24 25 11 16 20 20 22 16 21 21 21 20 24 30 29 27 29 31 34 37 40 40 42 46 43 49 50 52 54 50 45 58 55 50 55 50 39 36 29
17 19 26 4 6 9 10 13 16 19 18 17 16 18 28 21 14 23 28 26 25 27 30 33 36 38 39 39 38 43 49 49 52 52 46 52 56 58 59 52 40 33 19 30
12 22 25 24 9 12 15 18 21 24 11 19 15 22 19 4 7 18 19 18 21 24 29 32 35 38 37 38 37 39 42 51 46 45 51 51 58 58 48 40 38 29 23 21
25 27 28 17 9 9 10 21 27 7 12 17 17 15 11 5 15 17 16 18 22 25 27 31 34 35 36 37 37 36 43 47 44 45 53 55 53 47 40 37 38 25 23 12
27 27 26 8 5 9 18 19 22 6 17 17 16 23 21 18 18 17 16 17 20 25 29 30 34 35 36 36 35 41 40 43 43 48 54 51 45 38 34 34 35 19 10 9
28 25 27 19 13 6 22 27 18 20 21 21 24 28 28 23 25 22 20 20 23 26 28 30 33 33 36 36 37 39 40 39 39 52 53 43 38 38 39 36 26 13 3 15
23 14 4 4 16 23 20 30 32 24 20 24 27 34 35 29 25 24 20 19 21 25 29 30 31 31 35 34 38 38 38 37 39 54 47 39 38 45 44 32 14 9 14 16
24 29 38 34 43 23 31 29 26 18 24 27 32 37 39 31 24 23 18 18 20 23 27 30 29 32 31 33 36 36 38 34 43 53 44 37 39 42 34 27 18 16 18 22
33 33 43 35 33 32 32 14 21 23 29 33 34 39 37 28 24 23 18 14 16 21 25 28 31 30 30 31 33 35 35 33 41 49 41 36 36 38 33 27 18 15 19 25
23 30 19 27 23 16 23 21 27 39 44 40 34 38 36 27 24 22 17 14 14 18 22 25 28 28 31 29 30 34 31 31 38 45 37 33 28 30 36 32 26 24 22 35
42 43 44 41 40 42 46 49 52 50 49 49 49 45 39 31 26 23 15 11 12 15 18 21 26 25 30 31 31 31 27 32 38 39 31 29 27 27 40 48 46 44 39 36
43 46 49 51 57 56 58 58 56 56 53 51 48 45 42 35 29 25 16 11 9 11 14 19 23 23 26 28 30 28 25 28 38 29 25 23 23 27 32 33 42 45 40 37
35 38 43 45 46 48 50 52 55 55 55 53 45 40 37 38 33 24 18 11 6 8 12 16 19 20 27 28 26 23 25 29 32 21 20 21 20 27 26 32 38 38 38 37
42 47 47 48 49 47 50 54 58 63 61 60 47 39 36 36 31 25 19 11 3 6 8 11 13 19 24 24 24 19 21 26 24 20 21 21 19 28 22 28 32 32 32 31
30 31 30 36 39 44 49 52 56 56 52 49 43 39 36 36 33 27 19 12 5 2 4 8 9 18 19 22 18 18 22 22 25 21 21 21 19 23 22 22 26 21 14 22
24 30 35 40 44 49 54 55 54 51 49 42 38 33 38 41 37 28 20 13 5 3 8 13 7 16 14 17 11 16 17 18 26 24 21 17 20 16 26 20 21 19 21 27
28 34 35 38 42 48 52 55 53 47 40 35 31 36 41 40 33 28 22 13 7 7 16 16 8 15 13 16 7 13 14 10 21 23 20 17 16 16 20 21 22 21 19 19
31 35 39 42 44 44 49 50 44 38 33 32 35 38 39 37 34 29 20 12 8 17 19 7 4 9 8 13 6 10 10 11 14 20 19 18 17 17 22 23 24 15 14 14
35 39 43 44 45 45 44 42 37 33 30 29 37 43 46 38 34 26 19 12 15 10 7 5 7 5 7 3 5 7 5 10 9 17 20 19 19 19 22 22 21 24 21 18
39 43 47 48 48 47 42 38 33 26 22 24 29 35 44 41 30 23 15 13 20 7 8 7 4 12 2 8 6 1 5 4 7 12 16 18 23 21 22 23 19 18 17 14
39 47 49 47 49 48 43 36 27 19 21 26 34 41 34 30 21 16 12 14 10 11 16 12 8 8 3 9 4 2 1 1 5 9 13 17 20 23 25 24 24 21 21 16
42 50 49 48 45 39 35 26 13 10 23 40 50 48 35 27 20 19 18 13 13 19 19 11 5 6 4 3 1 3 2 4 6 12 12 15 20 24 23 14 12 12 15 14
44 48 46 44 39 35 23 13 25 27 43 45 44 40 27 24 17 14 9 13 14 14 8 2 1 2 4 4 5 6 7 8 11 15 19 17 20 23 27 18 20 15 12 8
43 47 45 33 29 29 14 24 32 40 50 46 42 31 27 18 14 13 13 12 15 13 8 4 4 5 3 4 3 5 6 15 10 16 22 23 21 25 28 22 17 12 12 11
44 43 41 37 34 28 28 27 37 45 40 33 28 23 15 11 17 15 14 17 13 9 9 4 1 4 6 8 9 5 5 15 17 19 23 28 26 24 27 25 19 7 9 12
Wind_Direction_850mb
270 290 286 281 284 281 268 252 263 286 305 312 7 334 337 331 319 309 313 317 319 317 317 319 321 321 321 317 317 315 314 313 316 314 313 314 314 311 316 313 303 309 309 308
284 269 261 278 278 272 259 269 274 279 283 54 340 316 321 314 311 317 318 321 320 318 318 321 322 323 323 320 318 315 315 311 316 316 318 319 311 322 323 321 317 301 295 310
276 301 295 280 287 255 242 249 265 276 326 335 321 328 331 318 318 322 322 321 317 318 319 321 322 324 324 319 318 316 314 317 321 322 321 321 327 331 330 328 322 320 303 293
270 278 271 68 355 348 307 297 283 270 265 308 317 325 310 309 328 327 323 317 313 315 318 320 322 325 322 320 321 319 320 327 328 328 328 329 331 336 330 331 331 327 312 317
267 270 307 312 291 212 255 273 297 282 281 315 329 325 6 129 297 322 319 313 310 313 317 320 323 323 325 320 321 323 327 328 328 329 335 339 336 333 338 340 341 336 312 300
278 280 277 285 88 20 326 274 328 149 282 305 323 300 53 354 308 310 308 306 306 312 320 321 323 326 323 321 324 327 324 331 331 332 343 340 339 341 342 343 346 332 316 329
245 255 277 287 251 120 271 282 297 282 293 296 301 317 319 303 301 300 304 306 306 318 320 323 326 326 322 322 326 322 330 338 333 344 346 344 343 346 347 348 344 339 355 121
253 291 284 63 108 248 283 310 299 291 292 298 304 308 302 287 290 291 297 303 306 314 320 326 329 322 325 325 325 333 337 343 335 349 351 350 349 350 351 340 342 353 22 165
302 207 343 61 284 303 276 281 291 294 294 303 310 312 308 296 279 279 289 297 310 315 324 326 330 324 329 330 332 335 347 338 344 353 357 1 3 358 353 359 10 65 100 125
266 269 285 284 285 262 272 270 267 280 298 301 303 313 309 294 273 271 283 295 307 320 323 328 326 328 330 332 332 340 346 340 348 357 3 10 8 8 14 18 57 94 110 127
246 272 277 282 304 356 275 255 249 279 291 292 291 300 305 285 264 267 274 288 308 322 324 327 329 334 335 332 342 339 347 346 344 359 9 16 24 17 27 37 56 104 115 131
276 304 326 298 332 332 319 307 286 287 291 291 288 295 292 264 250 251 262 277 305 321 324 330 331 338 335 338 347 342 349 349 348 2 13 26 41 39 40 50 71 86 104 121
287 283 282 290 287 291 291 289 284 286 288 287 289 292 279 248 228 228 231 269 305 318 330 331 335 338 339 342 347 345 345 355 348 2 18 37 50 58 72 78 79 90 103 114
281 287 285 279 285 289 288 285 283 283 283 286 282 278 264 237 219 214 221 239 291 318 335 333 337 342 335 341 344 344 359 347 345 9 28 51 67 81 92 81 87 95 102 103
272 275 278 284 287 288 288 288 285 279 281 282 285 272 247 228 218 210 207 221 279 324 329 327 340 333 340 343 348 355 0 344 1 24 46 65 85 101 89 85 91 96 101 102
298 290 289 293 292 294 297 295 287 282 279 279 274 266 235 225 219 210 205 213 241 285 326 325 344 339 347 345 354 12 348 11 27 51 61 76 89 107 114 104 101 103 107 111
291 292 302 305 303 305 304 297 290 292 288 279 270 256 221 214 210 206 204 211 234 277 289 339 344 345 357 348 357 8 3 36 38 53 65 85 84 116 109 114 114 124 99 129
294 294 293 295 301 307 308 304 296 292 284 274 270 228 211 209 207 204 203 202 209 218 262 328 348 354 30 352 17 12 14 37 40 44 55 87 99 112 124 128 126 122 114 126
304 304 306 302 299 305 310 309 301 294 277 258 250 220 212 208 203 200 196 194 203 217 258 299 342 10 22 342 41 32 21 48 39 41 47 92 97 119 130 135 132 138 129 128
316 312 308 303 298 301 309 314 309 292 271 251 234 213 206 202 201 193 187 183 188 210 256 285 348 13 31 346 68 31 6 48 51 43 48 87 103 121 137 141 145 140 124 125
317 319 317 312 302 299 309 313 309 291 274 245 223 210 199 192 194 186 182 187 220 256 254 159 108 30 332 10 71 27 360 55 82 51 52 93 102 116 124 133 144 145 132 128
321 318 317 314 307 298 303 306 305 284 251 223 213 197 188 183 184 177 175 195 229 242 152 136 215 332 293 118 27 30 17 66 98 77 64 92 105 114 129 121 125 127 126 138
322 323 319 315 307 295 295 298 297 264 223 192 178 175 175 177 180 185 179 186 230 164 141 198 268 315 22 83 326 250 79 165 130 131 92 95 112 112 113 123 114 107 114 127
323 328 323 321 314 297 284 284 272 200 183 178 179 183 179 176 188 196 205 215 208 157 170 212 276 346 67 46 355 259 201 205 213 168 137 114 118 119 121 109 111 99 117 112
325 330 328 328 321 314 285 240 210 192 186 179 178 169 179 200 204 186 167 186 160 154 174 120 338 326 62 310 278 249 223 188 223 189 174 154 133 126 104 108 120 129 130 155
320 328 327 324 327 315 259 248 222 190 180 171 173 171 180 177 180 152 167 154 148 147 185 55 63 13 285 274 259 242 237 204 205 207 189 178 168 148 121 106 109 123 118 134
313 321 324 314 309 301 285 260 207 182 177 176 167 170 168 178 157 153 168 158 158 157 151 124 301 295 302 247 275 262 228 198 210 204 196 189 184 172 162 135 139 159 130 143